Weather History for Seward, AK

Change the Weather History Date:

Monday, October 29, 2012

  Actual Average Record
Temperature  
Mean Temperature 29 °F -  
Max Temperature 39 °F 39 °F 48 °F (1954)
Min Temperature 19 °F 31 °F 10 °F (1976)
Degree Days  
Heating Degree Days 36    
Moisture  
Dew Point 21 °F    
Average Humidity 74    
Maximum Humidity 89    
Minimum Humidity 53    
Precipitation  
Precipitation 0.00 in - - ()
Sea Level Pressure  
Sea Level Pressure 29.88 in    
Wind  
Wind Speed 5 mph (North)    
Max Wind Speed 9 mph    
Max Gust Speed 23 mph    
Visibility 10 miles    
Events      
Averages and records for this station are not official NWS values.
T = Trace of Precipitation, MM = Missing Value Source: NWS Daily Summary

Daily Weather History Graph

Daily Weather History Graph

Search for Another Location

Airport:

Trip Planner

Search our weather history database for the weather conditions in past years. The results will help you decide how hot, cold, wet, or windy it might be!

Date:

Astronomy

Oct. 29, 2012 Rise Set
Actual Time 9:14 AM AKDT 6:07 PM AKDT
Civil Twilight 8:29 AM AKDT 6:51 PM AKDT
Nautical Twilight 7:40 AM AKDT 7:41 PM AKDT
Astronomical Twilight 6:51 AM AKDT 8:29 PM AKDT
Moon 5:50 PM AKDT (10/29) 9:25 AM AKDT (10/29)
Length of Visible Light 10h 22m
Length of Day
8h 52m
Full, 100% of the Moon is Illuminated
Oct 29
Full
Nov 6
Last Quarter
Nov 13
New
Nov 20
First Quarter
Nov 28
Full

Hourly Weather History & Observations

Time (AKDT) Temp. Windchill Dew Point Humidity Pressure Visibility Wind Dir Wind Speed Gust Speed Precip Events Conditions
12:53 AM 21.0 °F 14.6 °F 17.1 °F 85% 30.01 in 10.0 mi North 4.6 mph - N/A   Clear
1:53 AM 19.9 °F 13.4 °F 16.0 °F 85% 30.01 in 10.0 mi North 4.6 mph - N/A   Clear
2:53 AM 19.0 °F 12.3 °F 16.0 °F 88% 30.01 in 10.0 mi North 4.6 mph - N/A   Partly Cloudy
3:53 AM 19.9 °F 12.1 °F 16.0 °F 85% 30.00 in 10.0 mi NNW 5.8 mph - N/A   Clear
4:53 AM 21.0 °F 14.6 °F 17.1 °F 85% 29.98 in 10.0 mi NNW 4.6 mph - N/A   Clear
5:53 AM 19.9 °F 14.9 °F 17.1 °F 89% 29.97 in 10.0 mi North 3.5 mph - N/A   Clear
6:53 AM 19.9 °F 14.9 °F 16.0 °F 85% 29.96 in 10.0 mi NNW 3.5 mph - N/A   Scattered Clouds
7:53 AM 21.9 °F 17.2 °F 18.0 °F 85% 29.94 in 10.0 mi North 3.5 mph - N/A   Overcast
8:53 AM 23.0 °F 17.0 °F 19.9 °F 88% 29.93 in 10.0 mi North 4.6 mph - N/A   Overcast
9:53 AM 25.0 °F 17.1 °F 21.0 °F 85% 29.92 in 10.0 mi North 6.9 mph - N/A   Overcast
10:53 AM 28.0 °F 22.8 °F 21.9 °F 78% 29.91 in 10.0 mi North 4.6 mph - N/A   Overcast
11:53 AM 28.9 °F 22.8 °F 21.9 °F 75% 29.89 in 10.0 mi NNW 5.8 mph - N/A   Overcast
12:53 PM 30.9 °F 26.2 °F 23.0 °F 72% 29.88 in 10.0 mi North 4.6 mph - N/A   Overcast
1:53 PM 33.1 °F 26.9 °F 24.1 °F 70% 29.86 in 10.0 mi NNW 6.9 mph - N/A   Overcast
2:53 PM 36.0 °F 31.1 °F 25.0 °F 64% 29.83 in 10.0 mi NNW 5.8 mph - N/A   Overcast
3:53 PM 39.9 °F 35.8 °F 26.1 °F 58% 29.82 in 10.0 mi NNW 5.8 mph - N/A   Mostly Cloudy
4:53 PM 35.1 °F 30.1 °F 26.1 °F 70% 29.80 in 10.0 mi NNW 5.8 mph - N/A   Clear
5:53 PM 35.1 °F 29.3 °F 26.1 °F 70% 29.79 in 10.0 mi North 6.9 mph - N/A   Overcast
6:53 PM 36.0 °F 29.0 °F 26.1 °F 67% 29.78 in 10.0 mi NNE 9.2 mph - N/A   Overcast
7:53 PM 37.0 °F 31.0 °F 25.0 °F 62% 29.77 in 10.0 mi NNE 8.1 mph - N/A   Overcast
8:53 PM 37.0 °F 30.4 °F 25.0 °F 62% 29.76 in 10.0 mi NNE 9.2 mph - N/A   Overcast
9:53 PM 37.0 °F 32.4 °F 25.0 °F 62% 29.75 in 10.0 mi NNW 5.8 mph 16.1 mph N/A   Overcast
10:53 PM 37.0 °F 32.4 °F 24.1 °F 59% 29.74 in 10.0 mi NNE 5.8 mph - N/A   Clear
11:53 PM 37.9 °F 31.5 °F 21.9 °F 53% 29.74 in 10.0 mi North 9.2 mph 23.0 mph N/A   Clear